{"data":{"norad_id":68489,"epoch":"2026-05-24T20:30:29.867904Z","epoch_age_seconds":87285,"freshness":"FRESH","line1":"1 68489U 26067CB  26144.85451236  .00002542  00000+0  25971-3 0  9996","line2":"2 68489  97.7522 103.3984 0003442 117.5644 242.5925 14.91467167  8247","mean_motion":14.91467167,"eccentricity":0.0003442,"inclination_deg":97.7522,"raan_deg":103.3984,"arg_perigee_deg":117.5644,"mean_anomaly_deg":242.5925,"bstar":0.00025971,"rev_number":824,"period_min":96.549225612286,"perigee_km":590.96038364695,"apogee_km":595.75956216309,"semimajor_km":6971.496972905,"source":"CELESTRAK","updated_at":"2026-05-25T13:38:07.874151Z"}}